INTELSAT 36 (IS-36)

Last updated on Aug. 15, 2020, 5:34 a.m. UTC

1 41747U 16053A   20227.49767487 -.00000025  00000-0  00000-0 0  9991
2 41747   0.0101  33.6022 0002294 327.9338 209.5004  1.00275614 14589
UTC
Height (km)
Latitude
Longitude
Inclination
Orbital Period
UTC large
Height (km)
Speed (km/s)
/
Latitude / Longitude
Inclination (degrees)
Orbital Period (minutes)
Azimuth
Elevation
Range (km)
Doppler Factor
iOS Compass Heading
iOS Angle

Next 30 passes for location: Hong Kong

Rise time Rise Azimuth (degrees) Set time Set Azimuth (degrees) Duration Max altitude (degrees)

No matching passes for this satellites